TimeCDT,TemperatureF,Dew PointF,Humidity,Sea Level PressureIn,VisibilityMPH,Wind Direction,Wind SpeedMPH,Gust SpeedMPH,PrecipitationIn,Events,Conditions,WindDirDegrees,DateUTC
12:37 AM,71.6,69.8,94,30.04,10.0,SSE,8.1,-,N/A,,Overcast,150,2013-08-05 05:37:00
12:53 AM,72.0,70.0,93,30.00,10.0,SSE,6.9,-,N/A,,Overcast,150,2013-08-05 05:53:00
1:53 AM,72.0,70.0,93,29.97,10.0,South,12.7,-,N/A,,Overcast,170,2013-08-05 06:53:00
2:53 AM,72.0,70.0,93,29.93,10.0,South,10.4,-,N/A,,Overcast,170,2013-08-05 07:53:00
3:28 AM,71.6,69.8,94,29.97,6.0,South,9.2,-,N/A,,Overcast,180,2013-08-05 08:28:00
3:53 AM,71.1,70.0,96,29.92,4.0,South,11.5,-,N/A,,Overcast,180,2013-08-05 08:53:00
4:20 AM,71.6,71.6,100,29.96,2.5,South,8.1,-,N/A,,Overcast,180,2013-08-05 09:20:00
4:33 AM,71.6,71.6,100,29.95,3.0,South,8.1,-,N/A,,Overcast,180,2013-08-05 09:33:00
4:53 AM,72.0,71.1,97,29.91,4.0,South,8.1,-,N/A,,Overcast,180,2013-08-05 09:53:00
5:37 AM,71.6,69.8,94,29.95,10.0,SSW,11.5,-,N/A,,Overcast,200,2013-08-05 10:37:00
5:53 AM,72.0,70.0,93,29.91,10.0,South,8.1,-,N/A,,Overcast,190,2013-08-05 10:53:00
6:09 AM,71.6,69.8,94,29.96,10.0,South,6.9,-,N/A,,Overcast,190,2013-08-05 11:09:00
6:53 AM,72.0,69.1,91,29.91,10.0,South,9.2,-,N/A,,Overcast,190,2013-08-05 11:53:00
7:53 AM,73.0,69.1,87,29.93,10.0,SSW,8.1,-,N/A,,Overcast,210,2013-08-05 12:53:00
8:53 AM,73.0,69.1,87,29.94,10.0,SSW,8.1,-,N/A,,Overcast,200,2013-08-05 13:53:00
9:53 AM,73.9,69.1,85,29.94,10.0,SW,9.2,-,N/A,,Overcast,220,2013-08-05 14:53:00
10:53 AM,75.9,69.1,79,29.95,10.0,West,9.2,-,N/A,,Overcast,280,2013-08-05 15:53:00
11:53 AM,77.0,69.1,76,29.91,10.0,Calm,Calm,-,N/A,,Overcast,0,2013-08-05 16:53:00
12:15 PM,78.8,69.8,74,29.97,10.0,Calm,Calm,-,N/A,,Mostly Cloudy,0,2013-08-05 17:15:00
12:53 PM,77.0,70.0,79,29.93,10.0,Calm,Calm,-,N/A,,Overcast,0,2013-08-05 17:53:00
1:53 PM,79.0,70.0,74,29.90,10.0,SSE,8.1,-,N/A,,Mostly Cloudy,150,2013-08-05 18:53:00
2:22 PM,80.6,71.6,74,29.94,10.0,SSE,8.1,-,N/A,,Scattered Clouds,150,2013-08-05 19:22:00
2:53 PM,81.0,71.1,72,29.89,10.0,South,9.2,-,N/A,,Partly Cloudy,180,2013-08-05 19:53:00
3:53 PM,82.0,72.0,71,29.86,10.0,South,12.7,-,N/A,,Clear,180,2013-08-05 20:53:00
4:53 PM,82.0,73.0,74,29.87,10.0,South,6.9,-,N/A,,Partly Cloudy,180,2013-08-05 21:53:00
5:53 PM,82.9,73.0,72,29.85,9.0,SE,5.8,-,N/A,,Scattered Clouds,140,2013-08-05 22:53:00
5:56 PM,82.4,73.4,74,29.90,9.0,SE,5.8,-,N/A,,Mostly Cloudy,140,2013-08-05 22:56:00
6:53 PM,82.0,72.0,71,29.88,10.0,East,5.8,-,N/A,,Scattered Clouds,90,2013-08-05 23:53:00
7:53 PM,79.0,72.0,79,29.86,10.0,SSE,6.9,-,N/A,,Clear,160,2013-08-06 00:53:00
8:53 PM,75.9,72.0,87,29.86,10.0,ESE,3.5,-,N/A,,Clear,110,2013-08-06 01:53:00
9:53 PM,73.9,72.0,93,29.85,10.0,East,3.5,-,N/A,,Clear,90,2013-08-06 02:53:00
10:53 PM,73.9,72.0,93,29.88,9.0,Calm,Calm,-,N/A,,Clear,0,2013-08-06 03:53:00
11:53 PM,72.0,72.0,100,29.86,4.0,NNE,4.6,-,N/A,,Clear,30,2013-08-06 04:53:00